period_start,C,m1,H,J0,J1,J2,J3,J4,J5,JA,JB,JC,JD,JJ,JK,JN,#
2018-10-17 00:03:43,0.00,0.00,0.00,23.81,28.35,30.23,0.00,0.00,1010.43,2021.01,3591.01,3074.21,3535.99,0.00,0.00,0.00,0000 0000 0000 A000 020008
2018-10-17 00:08:44,0.00,0.00,0.00,23.80,28.35,30.28,0.00,0.00,1010.33,2021.00,3591.02,3074.24,3535.99,0.00,0.00,0.00,0000 0000 0000 A000 020008
2018-10-17 00:13:45,0.00,0.00,0.00,23.80,28.35,30.25,0.00,0.00,1010.29,2021.00,3591.01,3074.18,3535.99,0.00,0.00,0.00,0000 0000 0000 A000 020008
2018-10-17 00:18:46,0.00,0.00,0.00,23.80,28.35,30.23,0.00,0.00,1010.38,2021.01,3591.03,3074.28,3535.99,0.00,0.00,0.00,0000 0000 0000 A000 020008
2018-10-17 00:23:48,0.00,0.00,0.00,23.80,28.35,30.28,0.00,0.00,1010.47,2021.01,3591.04,3074.52,3535.99,0.00,0.00,0.00,0000 0000 0000 A000 020008
2018-10-17 00:28:49,0.00,0.00,0.00,23.79,28.35,30.25,0.00,0.00,1010.42,2021.01,3591.05,3074.47,3535.99,0.00,0.00,0.00,0000 0000 0000 A000 020008
2018-10-17 00:33:50,0.00,0.00,0.00,23.79,28.34,30.28,0.00,0.00,1010.45,2021.01,3591.03,3074.47,3535.99,0.00,0.00,0.00,0000 0000 0000 A000 020008
2018-10-17 00:38:51,0.00,0.00,0.00,23.77,28.33,30.24,0.00,0.03,1010.40,2021.01,3591.05,3074.56,3535.99,0.00,0.00,0.00,0000 0000 0000 A000 020008
2018-10-17 00:43:53,0.00,0.00,0.00,23.77,28.32,30.23,0.00,0.02,1010.43,2021.01,3591.09,3074.65,3535.99,0.00,0.00,0.00,0000 0000 0000 A000 020008
2018-10-17 00:48:53,0.00,0.00,0.00,23.77,28.32,30.24,0.00,0.00,1010.37,2021.02,3591.24,3074.90,3535.99,0.00,0.00,0.00,0000 0000 0000 A000 020008
2018-10-17 00:53:55,0.00,0.00,0.00,23.77,28.32,30.24,0.00,0.00,1010.42,2021.05,3591.33,3074.92,3535.99,0.00,0.00,0.00,0000 0000 0000 A000 020008
2018-10-17 00:58:56,0.00,0.00,0.00,23.75,28.32,30.16,0.00,0.00,1010.47,2021.04,3591.33,3074.93,3535.99,0.00,0.00,0.00,0000 0000 0000 A000 020008
2018-10-17 01:03:57,0.00,0.00,0.00,23.75,28.32,30.20,0.00,0.00,1010.51,2021.02,3591.22,3074.87,3535.99,0.00,0.00,0.00,0000 0000 0000 A000 020008
2018-10-17 01:08:59,0.00,0.00,0.00,23.77,28.32,30.23,0.00,0.00,1010.63,2021.03,3591.48,3074.95,3535.99,0.00,0.00,0.00,0000 0000 0000 A000 020008
2018-10-17 01:14:00,0.00,0.00,0.00,23.76,28.32,30.22,0.00,0.00,1010.68,2021.05,3591.37,3074.96,3535.99,0.00,0.00,0.00,0000 0000 0000 A000 020008
2018-10-17 01:19:01,0.00,0.00,0.00,23.75,28.32,30.24,0.00,0.00,1010.73,2021.08,3591.48,3074.96,3536.00,0.00,0.00,0.00,0000 0000 0000 A000 020008
2018-10-17 01:24:02,0.00,0.00,0.00,23.75,28.31,30.25,0.00,0.00,1010.76,2021.03,3591.36,3074.97,3536.00,0.00,0.00,0.00,0000 0000 0000 A000 020008
2018-10-17 01:29:03,0.00,0.00,0.00,23.74,28.30,30.23,0.00,0.00,1010.76,2021.04,3591.28,3074.94,3536.00,0.00,0.00,0.00,0000 0000 0000 A000 020008
2018-10-17 01:34:04,0.00,0.00,0.00,23.73,28.30,30.26,0.00,-0.01,1010.76,2021.06,3591.35,3074.95,3536.00,0.00,0.00,0.00,0000 0000 0000 A000 020008
2018-10-17 01:39:05,0.00,0.00,0.00,23.72,28.30,30.18,0.00,0.00,1010.76,2021.07,3591.60,3074.96,3536.00,0.00,0.00,0.00,0000 0000 0000 A000 020008
2018-10-17 01:44:06,0.00,0.00,0.00,23.74,28.30,30.18,0.00,0.00,1010.76,2021.10,3591.68,3074.98,3536.01,0.00,0.00,0.00,0000 0000 0000 A000 020008
2018-10-17 01:49:07,0.00,0.00,0.00,23.75,28.30,30.19,0.00,0.00,1010.76,2021.07,3591.63,3074.98,3536.00,0.00,0.00,0.00,0000 0000 0000 A000 020008
2018-10-17 01:54:09,0.00,0.00,0.00,23.77,28.30,30.25,0.00,0.01,1010.77,2021.11,3591.84,3074.98,3536.02,0.00,0.00,0.00,0000 0000 0000 A000 020008
2018-10-17 01:59:10,0.00,0.00,0.00,23.77,28.30,30.19,0.00,0.00,1010.77,2021.18,3591.88,3074.99,3536.02,0.00,0.00,0.00,0000 0000 0000 A000 020008
2018-10-17 02:04:11,0.00,0.00,0.00,23.77,28.30,30.16,0.00,0.01,1010.77,2021.08,3591.76,3074.98,3536.01,0.00,0.00,0.00,0000 0000 0000 A000 020008
2018-10-17 02:09:12,0.00,0.00,0.00,23.77,28.30,30.16,0.00,0.00,1010.80,2021.23,3591.89,3074.98,3536.03,0.00,0.00,0.00,0000 0000 0000 A000 020008
2018-10-17 02:14:13,0.00,0.00,0.00,23.75,28.29,30.23,0.00,0.00,1010.79,2021.17,3591.85,3074.98,3536.02,0.00,0.00,0.00,0000 0000 0000 A000 020008
2018-10-17 02:19:14,0.00,0.00,0.00,23.75,28.28,30.20,0.00,0.01,1010.81,2021.30,3591.93,3074.99,3536.02,0.00,0.00,0.00,0000 0000 0000 A000 020008
2018-10-17 02:24:15,0.00,0.00,0.00,23.75,28.27,30.16,0.00,0.04,1010.87,2021.39,3591.94,3074.99,3536.06,0.00,0.00,0.00,0000 0000 0000 A000 020008
2018-10-17 02:29:16,0.00,0.00,0.00,23.75,28.27,30.16,0.00,0.05,1010.96,2021.42,3591.98,3074.99,3536.15,0.00,0.00,0.00,0000 0000 0000 A000 020008
2018-10-17 02:34:18,0.00,0.00,0.00,23.74,28.27,30.21,0.00,0.00,1011.03,2021.25,3591.95,3074.99,3536.04,0.00,0.00,0.00,0000 0000 0000 A000 020008
2018-10-17 02:39:19,0.00,0.00,0.00,23.73,28.27,30.19,0.00,0.00,1010.94,2021.22,3591.94,3074.99,3536.07,0.00,0.00,0.00,0000 0000 0000 A000 020008
2018-10-17 02:44:20,0.00,0.00,0.00,23.73,28.27,30.19,0.00,0.05,1010.96,2021.42,3591.97,3074.99,3536.07,0.00,0.00,0.00,0000 0000 0000 A000 020008
2018-10-17 02:49:21,0.00,0.00,0.00,23.74,28.27,30.25,0.00,0.03,1011.11,2021.39,3591.95,3074.99,3536.02,0.00,0.00,0.00,0000 0000 0000 A000 020008
2018-10-17 02:54:22,0.00,0.00,0.00,23.73,28.27,30.21,0.00,0.01,1011.12,2021.31,3591.95,3074.99,3536.07,0.00,0.00,0.00,0000 0000 0000 A000 020008
2018-10-17 02:59:23,0.00,0.00,0.00,23.72,28.27,30.14,0.00,0.02,1011.10,2021.52,3591.97,3074.99,3536.17,0.00,0.00,0.00,0000 0000 0000 A000 020008
2018-10-17 03:04:24,0.00,0.00,0.00,23.72,28.27,30.14,0.00,0.05,1011.11,2021.44,3591.96,3074.99,3536.07,0.00,0.00,0.00,0000 0000 0000 A000 020008
2018-10-17 03:09:26,0.00,0.00,0.00,23.72,28.26,30.17,0.00,0.06,1010.88,2021.44,3591.97,3074.99,3536.07,0.00,0.00,0.00,0000 0000 0000 A000 020008
2018-10-17 03:14:27,0.00,0.00,0.00,23.72,28.25,30.14,0.00,0.10,1010.80,2021.54,3591.97,3074.99,3536.12,0.00,0.00,0.00,0000 0000 0000 A000 020008
2018-10-17 03:19:29,0.00,0.00,0.00,23.72,28.25,30.13,0.00,0.07,1010.85,2021.66,3591.98,3074.99,3536.32,0.00,0.00,0.00,0000 0000 0000 A000 020008
2018-10-17 03:24:30,0.00,0.00,0.00,23.71,28.25,30.23,0.00,0.03,1011.11,2021.64,3591.98,3074.99,3536.31,0.00,0.00,0.00,0000 0000 0000 A000 020008
2018-10-17 03:29:31,0.00,0.00,0.00,23.69,28.25,30.14,0.00,0.01,1011.23,2021.73,3591.98,3074.99,3536.37,0.00,0.00,0.00,0000 0000 0000 A000 020008
2018-10-17 03:34:33,0.00,0.00,0.00,23.67,28.25,30.07,0.00,0.03,1011.24,2021.81,3591.98,3074.99,3536.47,0.00,0.00,0.00,0000 0000 0000 A000 020008
2018-10-17 03:39:34,0.00,0.00,0.00,23.66,28.23,30.10,0.00,0.05,1011.24,2021.79,3591.98,3074.99,3536.46,0.00,0.00,0.00,0000 0000 0000 A000 020008
2018-10-17 03:44:36,0.00,0.00,0.00,23.65,28.22,30.10,0.00,0.13,1011.24,2021.89,3591.99,3075.02,3536.80,0.00,0.00,0.00,0000 0000 0000 A000 020008
2018-10-17 03:49:37,0.00,0.00,0.00,23.64,28.22,30.05,0.00,0.20,1011.21,2021.95,3591.99,3075.03,3536.94,0.00,0.00,0.00,0000 0000 0000 A000 020008
2018-10-17 03:54:38,0.00,0.00,0.00,23.62,28.22,30.10,0.00,0.20,1011.14,2021.96,3592.00,3075.08,3536.97,0.00,0.00,0.00,0000 0000 0000 A000 020008
2018-10-17 03:59:39,0.00,0.00,0.00,23.62,28.21,30.06,0.00,0.11,1011.18,2021.97,3592.00,3075.08,3536.96,0.00,0.00,0.00,0000 0000 0000 A000 020008
2018-10-17 04:04:41,0.00,0.00,0.00,23.62,28.20,30.08,0.00,0.13,1011.22,2021.98,3592.01,3075.28,3536.99,0.00,0.00,0.00,0000 0000 0000 A000 020008
2018-10-17 04:09:42,0.00,0.00,0.00,23.61,28.20,30.05,0.00,0.17,1011.23,2021.98,3592.01,3075.22,3536.98,0.00,0.00,0.00,0000 0000 0000 A000 020008
2018-10-17 04:14:43,0.00,0.00,0.00,23.60,28.20,30.13,0.00,0.18,1011.24,2021.98,3592.02,3075.31,3536.99,0.00,0.00,0.00,0000 0000 0000 A000 020008
2018-10-17 04:19:45,0.00,0.00,0.00,23.60,28.18,30.08,0.00,0.17,1011.24,2021.99,3592.08,3075.71,3536.99,0.00,0.00,0.00,0000 0000 0000 A000 020008
2018-10-17 04:24:46,0.00,0.00,0.00,23.59,28.17,30.01,0.00,0.17,1011.24,2021.99,3592.04,3075.63,3536.99,0.00,0.00,0.00,0000 0000 0000 A000 020008
2018-10-17 04:29:47,0.00,0.00,0.00,23.57,28.17,30.01,0.00,0.23,1011.24,2021.99,3592.13,3075.88,3536.99,0.00,0.00,0.00,0000 0000 0000 A000 020008
2018-10-17 04:34:48,0.00,0.00,0.00,23.55,28.17,30.02,0.00,0.26,1011.24,2021.99,3592.15,3075.88,3537.00,0.00,0.00,0.00,0000 0000 0000 A000 020008
2018-10-17 04:39:49,0.00,0.00,0.00,23.55,28.15,30.04,0.00,0.30,1011.24,2021.99,3592.20,3075.93,3537.00,0.00,0.00,0.00,0000 0000 0000 A000 020008
2018-10-17 04:44:51,0.00,0.00,0.00,23.53,28.15,30.04,0.00,0.22,1011.25,2021.99,3592.63,3075.98,3537.03,0.00,0.00,0.00,0000 0000 0000 A000 020008
2018-10-17 04:49:52,0.00,0.00,0.00,23.50,28.14,30.01,0.00,0.19,1011.25,2021.99,3592.84,3075.98,3537.04,0.00,0.00,0.00,0000 0000 0000 A000 020008
2018-10-17 04:54:53,0.00,0.00,0.00,23.48,28.12,29.92,0.00,0.06,1011.27,2021.99,3592.95,3075.99,3537.10,0.00,0.00,0.00,0000 0000 0000 A000 020008
2018-10-17 04:59:55,0.00,0.00,0.00,23.45,28.12,29.88,0.00,0.04,1011.29,2021.99,3592.96,3075.99,3537.13,0.00,0.00,0.00,0000 0000 0000 A000 020008
2018-10-17 05:04:56,0.00,0.00,0.00,23.43,28.10,29.93,0.00,0.07,1011.30,2022.00,3592.98,3075.99,3537.54,0.00,0.00,0.00,0000 0000 0000 A000 020008
2018-10-17 05:09:57,0.00,0.00,0.00,23.42,28.10,29.92,0.00,0.11,1011.35,2022.00,3592.99,3076.01,3537.86,0.00,0.00,0.00,0000 0000 0000 A000 020008
2018-10-17 05:14:58,0.00,0.00,0.00,23.42,28.09,29.88,0.00,0.08,1011.51,2022.00,3592.99,3076.00,3537.86,0.00,0.00,0.00,0000 0000 0000 A000 020008
2018-10-17 05:19:59,0.00,0.00,0.00,23.40,28.07,29.79,0.00,0.03,1011.53,2022.01,3592.99,3076.02,3537.96,0.00,0.00,0.00,0000 0000 0000 A000 020008
2018-10-17 05:25:01,0.00,0.00,0.00,23.39,28.07,29.80,0.00,0.05,1011.50,2022.02,3592.99,3076.03,3537.97,0.00,0.00,0.00,0000 0000 0000 A000 020008
2018-10-17 05:30:02,0.00,0.00,0.00,23.39,28.05,29.82,0.00,0.12,1011.57,2022.02,3592.99,3076.05,3537.98,0.00,0.00,0.00,0000 0000 0000 A000 020008
2018-10-17 05:35:03,0.00,0.00,0.00,23.38,28.05,29.82,0.00,0.12,1011.69,2022.03,3592.99,3076.11,3537.99,0.00,0.00,0.00,0000 0000 0000 A000 020008
2018-10-17 05:40:05,0.00,0.00,0.00,23.37,28.04,29.83,0.00,0.13,1011.72,2022.21,3593.07,3076.57,3537.99,0.00,0.00,0.00,0000 0000 0000 A000 020008
2018-10-17 05:45:06,0.00,0.00,0.00,23.37,28.02,29.79,0.00,0.02,1011.73,2022.31,3593.07,3076.83,3538.00,0.00,0.00,0.00,0000 0000 0000 A000 020008
2018-10-17 05:50:07,0.00,0.00,0.00,23.37,28.02,29.82,0.00,0.02,1011.73,2022.54,3593.18,3076.93,3538.01,0.00,0.00,0.00,0000 0000 0000 A000 020008
2018-10-17 05:55:09,0.00,0.00,0.00,23.37,28.01,29.81,0.00,0.03,1011.73,2022.56,3593.18,3076.93,3538.01,0.00,0.00,0.00,0000 0000 0000 A000 020008
2018-10-17 06:00:10,0.00,0.00,0.00,23.35,28.00,29.85,0.00,0.03,1011.73,2022.59,3593.20,3076.95,3538.02,0.00,0.00,0.00,0000 0000 0000 A000 020008
2018-10-17 06:05:11,0.00,0.00,0.00,23.36,28.00,29.82,0.00,0.06,1011.74,2022.90,3593.78,3076.98,3538.20,0.00,0.00,0.00,0000 0000 0000 A000 020008
2018-10-17 06:10:12,0.00,0.00,0.00,23.37,27.99,29.81,0.00,0.07,1011.74,2022.97,3593.94,3076.99,3538.51,0.00,0.00,0.00,0000 0000 0000 A000 020008
2018-10-17 06:15:14,0.00,0.00,0.00,23.35,27.97,29.80,0.00,0.03,1011.74,2022.97,3593.97,3076.99,3538.81,0.00,0.00,0.00,0000 0000 0000 A000 020008
2018-10-17 06:20:15,0.00,0.00,0.00,23.35,27.97,29.82,0.00,0.03,1011.74,2022.96,3593.97,3076.99,3538.80,0.00,0.00,0.00,0000 0000 0000 A000 020008
2018-10-17 06:25:16,0.00,0.00,0.00,23.35,27.97,29.83,0.00,0.06,1011.74,2022.95,3593.96,3076.99,3538.69,0.00,0.00,0.00,0000 0000 0000 A000 020008
2018-10-17 06:30:18,0.00,0.00,0.00,23.34,27.95,29.80,0.00,0.07,1011.73,2022.96,3593.98,3076.99,3538.87,0.00,0.00,0.00,0000 0000 0000 A000 020008
2018-10-17 06:35:19,0.00,0.00,0.00,23.34,27.95,29.80,0.00,0.07,1011.73,2022.96,3593.97,3077.00,3538.94,0.00,0.00,0.00,0000 0000 0000 A000 020008
2018-10-17 06:40:20,0.00,0.00,0.00,23.34,27.95,29.85,0.00,0.03,1011.73,2022.97,3593.98,3077.00,3538.96,0.00,0.00,0.00,0000 0000 0000 A000 020008
2018-10-17 06:45:22,0.00,0.00,0.00,23.33,27.94,29.85,0.00,0.13,1011.72,2022.99,3593.99,3077.01,3538.99,0.00,0.00,0.00,0000 0000 0000 A000 020008
2018-10-17 06:50:23,0.00,0.00,0.00,23.32,27.93,29.83,0.00,0.19,1011.65,2022.99,3593.99,3077.02,3538.99,0.00,0.00,0.00,0000 0000 0000 A000 020008
2018-10-17 06:55:24,0.00,0.00,0.00,23.34,27.92,29.82,0.00,0.23,1011.58,2022.99,3593.99,3077.08,3538.99,0.00,0.00,0.00,0000 0000 0000 A000 020008
2018-10-17 07:00:25,0.00,0.00,0.00,23.33,27.92,29.83,0.00,0.22,1011.50,2022.99,3594.00,3077.07,3538.99,0.00,0.00,0.00,0000 0000 0000 A000 020008
2018-10-17 07:05:26,0.00,0.00,0.00,23.32,27.92,29.81,0.00,0.24,1011.38,2022.99,3594.00,3077.11,3538.99,0.00,0.00,0.00,0000 0000 0000 A000 020008
2018-10-17 07:10:27,0.00,0.00,0.00,23.32,27.90,29.81,0.00,0.20,1011.56,2022.99,3594.05,3077.55,3539.00,0.00,0.00,0.00,0000 0000 0000 A000 020008
2018-10-17 07:15:29,0.00,0.00,0.00,23.30,27.90,29.81,0.00,0.16,1011.69,2022.99,3594.06,3077.46,3539.00,0.00,0.00,0.00,0000 0000 0000 A000 020008
2018-10-17 07:20:30,0.00,0.00,0.00,23.27,27.90,29.69,0.00,0.17,1011.73,2023.00,3594.06,3077.54,3539.01,0.00,0.00,0.00,0000 0000 0000 A000 020008
2018-10-17 07:25:31,0.00,0.00,0.00,23.27,27.89,29.71,0.00,0.22,1011.73,2023.00,3594.04,3077.61,3539.02,0.00,0.00,0.00,0000 0000 0000 A000 020008
2018-10-17 07:30:32,0.00,0.00,0.00,23.26,27.87,29.75,0.00,0.13,1011.73,2023.00,3594.19,3077.92,3539.04,0.00,0.00,0.00,0000 0000 0000 A000 020008
2018-10-17 07:35:33,0.00,0.00,0.00,23.24,27.87,29.70,0.00,0.11,1011.74,2023.00,3594.29,3077.95,3539.11,0.00,0.00,0.00,0000 0000 0000 A000 020008
2018-10-17 07:40:34,0.00,0.00,0.00,23.22,27.86,29.72,0.00,0.20,1011.74,2023.01,3594.44,3077.97,3539.16,0.00,0.00,0.00,0000 0000 0000 A000 020008
2018-10-17 07:45:35,0.00,0.00,0.00,23.22,27.85,29.64,0.00,0.17,1011.73,2023.00,3594.37,3077.96,3539.09,0.00,0.00,0.00,0000 0000 0000 A000 020008
2018-10-17 07:50:36,0.00,0.00,0.00,23.21,27.85,29.71,0.00,0.15,1011.75,2023.00,3594.66,3077.96,3539.43,0.00,0.00,0.00,0000 0000 0000 A000 020008
2018-10-17 07:55:37,0.00,0.00,0.00,23.21,27.84,29.65,0.00,0.23,1011.74,2023.03,3594.91,3077.99,3539.71,0.00,0.00,0.00,0000 0000 0000 A000 020008
2018-10-17 08:00:38,0.00,0.00,0.00,23.22,27.82,29.65,0.00,0.26,1011.73,2023.04,3594.96,3077.99,3539.94,0.00,0.00,0.00,0000 0000 0000 A000 020008
2018-10-17 08:05:39,0.00,0.00,0.00,23.19,27.82,29.59,0.00,0.27,1011.73,2023.04,3594.97,3077.99,3539.95,0.00,0.00,0.00,0000 0000 0000 A000 020008
2018-10-17 08:10:40,0.00,0.00,0.00,23.19,27.81,29.66,0.00,0.25,1011.72,2023.07,3594.98,3077.99,3539.97,0.00,0.00,0.00,0000 0000 0000 A000 020008
2018-10-17 08:15:41,0.00,0.00,0.00,23.19,27.80,29.71,0.00,0.27,1011.73,2023.15,3594.98,3077.99,3539.97,0.00,0.00,0.00,0000 0000 0000 A000 020008
2018-10-17 08:20:43,0.00,0.00,0.00,23.17,27.80,29.70,0.00,0.25,1011.71,2023.25,3594.99,3078.00,3539.99,0.00,0.00,0.00,0000 0000 0000 A000 020008
2018-10-17 08:25:44,0.00,0.00,0.00,23.15,27.78,29.61,0.00,0.29,1011.67,2023.47,3594.99,3078.01,3539.99,0.00,0.00,0.00,0000 0000 0000 A000 020008
2018-10-17 08:30:45,0.00,0.00,0.00,23.13,27.77,29.60,0.00,0.35,1011.56,2023.60,3594.99,3078.04,3539.99,0.00,0.00,0.00,0000 0000 0000 A000 020008
2018-10-17 08:35:46,0.00,0.00,0.00,23.11,27.77,29.58,0.00,0.43,1011.63,2023.82,3595.01,3078.14,3540.00,0.00,0.00,0.00,0000 0000 0000 A000 020008
2018-10-17 08:40:47,0.00,0.00,0.00,23.09,27.75,29.57,0.00,0.35,1011.73,2023.93,3595.05,3078.41,3540.01,0.00,0.00,0.00,0000 0000 0000 A000 020008
2018-10-17 08:45:48,0.00,0.00,0.00,23.09,27.75,29.59,0.00,0.34,1011.82,2023.97,3595.24,3078.85,3540.12,0.00,0.00,0.00,0000 0000 0000 A000 020008
2018-10-17 08:50:49,0.00,0.00,0.00,23.09,27.73,29.59,0.00,0.27,1012.19,2023.97,3595.27,3078.87,3540.16,0.00,0.00,0.00,0000 0000 0000 A000 020008
2018-10-17 08:55:50,0.00,0.00,0.00,23.07,27.72,29.54,0.00,0.23,1012.30,2023.98,3595.45,3078.96,3540.34,0.00,0.00,0.00,0000 0000 0000 A000 020008
2018-10-17 09:00:51,0.00,0.00,0.00,23.06,27.72,29.51,0.00,0.17,1012.67,2023.99,3595.89,3078.98,3540.88,0.00,0.00,0.00,0000 0000 0000 A000 020008
2018-10-17 09:05:53,0.00,0.00,0.00,23.04,27.70,29.44,0.00,0.23,1012.71,2023.99,3595.95,3078.99,3540.96,0.00,0.00,0.00,0000 0000 0000 A000 020008
2018-10-17 09:10:54,0.00,0.00,0.00,23.03,27.70,29.43,0.00,0.23,1012.71,2023.99,3595.98,3078.99,3540.97,0.00,0.00,0.00,0000 0000 0000 A000 020008
2018-10-17 09:15:55,0.00,0.00,0.00,23.04,27.68,29.50,0.00,0.25,1012.74,2023.99,3595.98,3078.99,3540.98,0.00,0.00,0.00,0000 0000 0000 A000 020008
2018-10-17 09:20:56,0.00,0.00,0.00,23.02,27.67,29.49,0.00,0.25,1012.77,2023.99,3595.98,3078.99,3540.98,0.00,0.00,0.00,0000 0000 0000 A000 020008
2018-10-17 09:25:57,0.00,0.00,0.00,23.02,27.67,29.49,0.00,0.25,1012.79,2023.99,3595.99,3079.00,3540.99,0.00,0.00,0.00,0000 0000 0000 A000 020008
2018-10-17 09:30:59,0.00,0.00,0.00,23.02,27.65,29.47,0.00,0.32,1012.75,2024.00,3595.99,3079.01,3540.99,0.00,0.00,0.00,0000 0000 0000 A000 020008
2018-10-17 09:36:00,0.00,0.00,0.00,23.01,27.65,29.50,0.00,0.32,1012.73,2024.00,3595.99,3079.01,3540.99,0.00,0.00,0.00,0000 0000 0000 A000 020008
2018-10-17 09:41:01,0.00,0.00,0.00,23.02,27.64,29.40,0.00,0.33,1012.77,2024.00,3596.00,3079.03,3540.99,0.00,0.00,0.00,0000 0000 0000 A000 020008
2018-10-17 09:46:02,0.00,0.00,0.00,23.02,27.62,29.52,0.00,0.29,1012.85,2024.00,3596.01,3079.06,3541.00,0.00,0.00,0.00,0000 0000 0000 A000 020008
2018-10-17 09:51:04,0.00,0.00,0.00,23.01,27.62,29.49,0.00,0.25,1012.90,2024.02,3596.04,3079.26,3541.07,0.00,0.00,0.00,0000 0000 0000 A000 020008
2018-10-17 09:56:05,0.00,0.00,0.00,23.00,27.60,29.45,0.00,0.21,1013.00,2024.02,3596.04,3079.40,3541.12,0.00,0.00,0.00,0000 0000 0000 A000 020008
2018-10-17 10:01:06,0.00,0.00,0.00,22.98,27.60,29.45,0.00,0.33,1013.07,2024.01,3596.07,3079.60,3541.18,0.00,0.00,0.00,0000 0000 0000 A000 020008
2018-10-17 10:06:07,0.00,0.00,0.00,22.97,27.59,29.43,0.00,0.07,1013.19,2024.04,3596.10,3079.74,3541.30,0.00,0.00,0.00,0000 0000 0000 A000 020008
2018-10-17 10:11:09,0.00,0.00,0.00,22.94,27.57,29.44,0.00,0.06,1013.21,2024.07,3596.40,3079.92,3541.67,0.00,0.00,0.00,0000 0000 0000 A000 020008
2018-10-17 10:16:10,0.00,0.00,0.00,22.92,27.57,29.38,0.00,0.07,1013.21,2024.17,3596.74,3079.97,3541.93,0.00,0.00,0.00,0000 0000 0000 A000 020008
2018-10-17 10:21:11,0.00,0.00,0.00,22.91,27.55,29.40,0.00,0.14,1013.31,2024.25,3596.91,3079.98,3541.97,0.00,0.00,0.00,0000 0000 0000 A000 020008
2018-10-17 10:26:12,0.00,0.00,0.00,22.91,27.55,29.32,0.00,0.14,1013.46,2024.32,3596.94,3079.99,3541.97,0.00,0.00,0.00,0000 0000 0000 A000 020008
2018-10-17 10:31:13,0.00,0.00,0.00,22.92,27.55,29.37,0.00,0.04,1013.43,2024.45,3596.97,3079.99,3541.99,0.00,0.00,0.00,0000 0000 0000 A000 020008
2018-10-17 10:36:14,0.00,0.00,0.00,22.94,27.53,29.34,0.00,0.13,1013.59,2024.49,3596.97,3079.99,3541.98,0.00,0.00,0.00,0000 0000 0000 A000 020008
2018-10-17 10:41:15,0.00,0.00,0.00,22.94,27.52,29.36,0.00,0.04,1013.69,2024.62,3596.97,3079.99,3541.99,0.00,0.00,0.00,0000 0000 0000 A000 020008
2018-10-17 10:46:16,0.00,0.00,0.00,22.95,27.52,29.38,0.00,0.01,1013.68,2024.83,3596.99,3079.99,3541.99,0.00,0.00,0.00,0000 0000 0000 A000 020008
2018-10-17 10:51:18,0.00,0.00,0.00,22.96,27.52,29.40,0.00,0.01,1013.69,2024.92,3596.99,3080.00,3542.00,0.00,0.00,0.00,0000 0000 0000 A000 020008
2018-10-17 10:56:19,0.00,0.00,0.00,22.97,27.52,29.36,0.00,0.00,1013.64,2024.96,3596.99,3080.01,3542.00,0.00,0.00,0.00,0000 0000 0000 A000 020008
2018-10-17 11:01:20,0.00,0.00,0.00,22.97,27.51,29.41,0.00,0.02,1013.58,2024.97,3596.99,3080.01,3542.01,0.00,0.00,0.00,0000 0000 0000 A000 020008
2018-10-17 11:06:21,0.00,0.00,0.00,22.99,27.50,29.41,0.00,0.03,1013.67,2024.98,3596.99,3080.02,3542.01,0.00,0.00,0.00,0000 0000 0000 A000 020008
2018-10-17 11:11:22,0.00,0.00,0.00,22.99,27.50,29.44,0.00,0.06,1013.69,2024.99,3596.99,3080.02,3542.02,0.00,0.00,0.00,0000 0000 0000 A000 020008
2018-10-17 11:16:24,0.00,0.00,0.00,23.02,27.50,29.43,0.00,0.01,1013.69,2024.98,3596.99,3080.01,3542.03,0.00,0.00,0.00,0000 0000 0000 A000 020008
2018-10-17 11:21:25,0.00,0.00,0.00,23.02,27.50,29.47,0.00,0.02,1013.69,2024.97,3596.99,3080.02,3542.02,0.00,0.00,0.00,0000 0000 0000 A000 020008
2018-10-17 11:26:26,0.00,0.00,0.00,23.03,27.50,29.52,0.00,0.07,1013.69,2024.96,3596.99,3080.02,3542.01,0.00,0.00,0.00,0000 0000 0000 A000 020008
2018-10-17 11:31:27,0.00,0.00,0.00,23.04,27.50,29.46,0.00,0.14,1013.69,2024.95,3596.99,3080.02,3542.01,0.00,0.00,0.00,0000 0000 0000 A000 020008
2018-10-17 11:36:28,0.00,0.00,0.00,23.06,27.50,29.47,0.00,0.18,1013.69,2024.98,3596.99,3080.01,3542.01,0.00,0.00,0.00,0000 0000 0000 A000 020008
2018-10-17 11:41:29,0.00,0.00,0.00,23.07,27.51,29.51,0.00,0.23,1013.69,2024.98,3596.99,3080.02,3542.01,0.00,0.00,0.00,0000 0000 0000 A000 020008
2018-10-17 11:46:30,0.00,0.00,0.00,23.07,27.52,29.46,0.00,0.24,1013.69,2024.97,3596.99,3080.02,3542.01,0.00,0.00,0.00,0000 0000 0000 A000 020008
2018-10-17 11:51:32,0.00,0.00,0.00,23.07,27.52,29.48,0.00,0.24,1013.69,2024.96,3596.99,3080.03,3542.02,0.00,0.00,0.00,0000 0000 0000 A000 020008
2018-10-17 11:56:33,0.00,0.00,0.00,23.05,27.52,29.47,0.00,0.25,1013.68,2024.95,3596.99,3080.00,3542.01,0.00,0.00,0.00,0000 0000 0000 A000 020008
2018-10-17 12:01:34,0.00,0.00,0.00,23.05,27.52,29.47,0.00,0.28,1013.58,2024.95,3596.99,3080.00,3542.00,0.00,0.00,0.00,0000 0000 0000 A000 020008
2018-10-17 12:06:35,0.00,0.00,0.00,23.04,27.52,29.52,0.00,0.27,1013.43,2024.95,3596.99,3080.00,3542.01,0.00,0.00,0.00,0000 0000 0000 A000 020008
2018-10-17 12:11:36,0.00,0.00,0.00,23.04,27.52,29.48,0.00,0.33,1013.26,2024.92,3596.99,3080.01,3542.00,0.00,0.00,0.00,0000 0000 0000 A000 020008
2018-10-17 12:16:37,0.00,0.00,0.00,23.04,27.52,29.52,0.00,0.33,1013.21,2024.96,3596.99,3080.00,3542.00,0.00,0.00,0.00,0000 0000 0000 A000 020008
2018-10-17 12:21:38,0.00,0.00,0.00,23.05,27.52,29.49,0.00,0.28,1013.21,2024.96,3596.99,3080.00,3542.00,0.00,0.00,0.00,0000 0000 0000 A000 020008
2018-10-17 12:26:39,0.00,0.00,0.00,23.02,27.52,29.48,0.00,0.39,1013.20,2024.96,3596.99,3080.02,3542.00,0.00,0.00,0.00,0000 0000 0000 A000 020008
2018-10-17 12:31:41,0.00,0.00,0.00,23.02,27.52,29.50,0.00,0.38,1013.20,2024.93,3596.99,3080.00,3542.00,0.00,0.00,0.00,0000 0000 0000 A000 020008
2018-10-17 12:36:42,0.00,0.00,0.00,23.01,27.52,29.52,0.00,0.43,1013.20,2024.93,3596.99,3080.00,3542.00,0.00,0.00,0.00,0000 0000 0000 A000 020008
2018-10-17 12:41:44,0.00,0.00,0.00,23.00,27.52,29.46,0.00,0.39,1013.20,2024.95,3596.99,3080.01,3542.00,0.00,0.00,0.00,0000 0000 0000 A000 020008
2018-10-17 12:46:45,0.00,0.00,0.00,22.98,27.50,29.53,0.00,0.37,1013.20,2024.96,3596.99,3080.00,3542.00,0.00,0.00,0.00,0000 0000 0000 A000 020008
2018-10-17 12:51:47,0.00,0.00,0.00,22.94,27.50,29.47,0.00,0.32,1013.20,2024.97,3597.00,3080.02,3542.01,0.00,0.00,0.00,0000 0000 0000 A000 020008
2018-10-17 12:56:47,0.00,0.00,0.00,22.93,27.50,29.44,0.00,0.35,1013.20,2024.97,3597.00,3080.02,3542.00,0.00,0.00,0.00,0000 0000 0000 A000 020008
2018-10-17 13:01:49,0.00,0.00,0.00,22.92,27.50,29.39,0.00,0.38,1013.20,2024.98,3597.00,3080.01,3542.02,0.00,0.00,0.00,0000 0000 0000 A000 020008
2018-10-17 13:06:50,0.00,0.00,0.00,22.90,27.48,29.40,0.00,0.33,1013.20,2024.95,3597.00,3080.03,3542.03,0.00,0.00,0.00,0000 0000 0000 A000 020008
2018-10-17 13:11:51,0.00,0.00,0.00,22.88,27.47,29.39,0.00,0.40,1013.22,2024.98,3597.01,3080.14,3542.04,0.00,0.00,0.00,0000 0000 0000 A000 020008
2018-10-17 13:16:52,0.00,0.00,0.00,22.86,27.47,29.32,0.00,0.35,1013.39,2024.98,3597.00,3080.08,3542.05,0.00,0.00,0.00,0000 0000 0000 A000 020008
2018-10-17 13:21:52,0.00,0.00,0.00,22.84,27.47,29.34,0.00,0.39,1013.56,2024.98,3597.03,3080.30,3542.13,0.00,0.00,0.00,0000 0000 0000 A000 020008
2018-10-17 13:26:54,0.00,0.00,0.00,22.82,27.45,29.31,0.00,0.38,1013.62,2024.99,3597.05,3080.44,3542.29,0.00,0.00,0.00,0000 0000 0000 A000 020008
2018-10-17 13:31:55,0.00,0.00,0.00,22.82,27.45,29.36,0.00,0.39,1013.61,2024.99,3597.17,3080.78,3542.66,0.00,0.00,0.00,0000 0000 0000 A000 020008